This is the latest recevied weather packets stored in our database for station/object JA7ZQY-10. If no packets are shown the sender has not sent any weather packets the latest 10 day(s).
| Time | Temp. | Humidity | Pressure | Rain* | Wind** | Luminosity | Snow |
|---|---|---|---|---|---|---|---|
| 1777934689 | 11.67° C | 60% | 1017.4 hPa | 0 mm | - | - | - |
| 1777934090 | 11.11° C | 61% | 1017.5 hPa | 0 mm | - | - | - |
| 1777933491 | 11.11° C | 63% | 1017.1 hPa | 0 mm | - | - | - |
| 1777932891 | 11.11° C | 67% | 1017.2 hPa | 0 mm | - | - | - |
| 1777932291 | 10.56° C | 68% | 1017.2 hPa | 0 mm | - | - | - |
| 1777931689 | 10° C | 70% | 1016.9 hPa | 0 mm | - | - | - |
| 1777931089 | 9.44° C | 70% | 1017 hPa | 0 mm | - | - | - |
| 1777930490 | 9.44° C | 71% | 1016.8 hPa | 0 mm | - | - | - |
| 1777929889 | 9.44° C | 71% | 1017.1 hPa | 0 mm | - | - | - |
| 1777929290 | 9.44° C | 70% | 1016.8 hPa | 0 mm | - | - | - |
| 1777928691 | 9.44° C | 69% | 1016.6 hPa | 0 mm | - | - | - |
| 1777928091 | 9.44° C | 70% | 1016.5 hPa | 0 mm | - | - | - |
| 1777927489 | 8.89° C | 69% | 1016.4 hPa | 0 mm | - | - | - |
| 1777926890 | 8.89° C | 67% | 1015.9 hPa | 0 mm | - | - | - |
| 1777926290 | 8.89° C | 66% | 1015.8 hPa | 0 mm | - | - | - |
| 1777925691 | 8.89° C | 68% | 1015.6 hPa | 0 mm | - | - | - |
| 1777925091 | 8.89° C | 69% | 1015.9 hPa | 0 mm | - | - | - |
| 1777924490 | 8.89° C | 70% | 1015.5 hPa | 0 mm | - | - | - |
| 1777923890 | 8.33° C | 69% | 1015.3 hPa | 0 mm | - | - | - |
| 1777923291 | 8.33° C | 68% | 1014.8 hPa | 0 mm | - | - | - |
| 1777922690 | 8.33° C | 67% | 1014.9 hPa | 0 mm | - | - | - |
| 1777922090 | 8.33° C | 68% | 1014.3 hPa | 0 mm | - | - | - |
| 1777921491 | 8.33° C | 67% | 1014.4 hPa | 0 mm | - | - | - |
| 1777920890 | 8.33° C | 66% | 1014.3 hPa | 0 mm | - | - | - |
| 1777920290 | 8.33° C | 65% | 1014.3 hPa | 0 mm | - | - | - |
* Rain latest hour (hover to see other rain measurements)
** Current wind speed in m/s (hover to see current wind gust speed)